�������l�o���
Date,Time,MP-1(��Sv/h),MP-2(��Sv/h),MP-3(��Sv/h),MP-4(��Sv/h),MP-5(��Sv/h),MP-6(��Sv/h),MP-7(��Sv/h),MP-8(��Sv/h),����,����(m/s),���J
2020/10/11,00:00,0.637,0.900,0.577,1.106,0.773,0.376,0.648,0.617,�k��,6.6,�L
2020/10/11,00:10,0.639,0.901,0.577,1.104,0.773,0.377,0.650,0.617,�k�k��,6.9,�L
2020/10/11,00:20,0.637,0.901,0.577,1.105,0.774,0.375,0.649,0.618,�k�k��,7.0,�L
2020/10/11,00:30,0.636,0.903,0.575,1.106,0.774,0.377,0.648,0.618,�k�k��,6.9,�L
2020/10/11,00:40,0.638,0.901,0.576,1.106,0.774,0.376,0.648,0.617,�k�k��,6.6,�L
2020/10/11,00:50,0.638,0.899,0.576,1.107,0.772,0.377,0.648,0.618,�k�k��,6.5,�L
2020/10/11,01:00,0.638,0.901,0.576,1.106,0.773,0.375,0.649,0.618,�k�k��,6.7,�L
2020/10/11,01:10,0.638,0.901,0.574,1.104,0.774,0.376,0.648,0.617,�k�k��,6.9,��
2020/10/11,01:20,0.638,0.900,0.578,1.105,0.777,0.375,0.649,0.619,�k��,7.4,��
2020/10/11,01:30,0.637,0.901,0.576,1.106,0.774,0.376,0.650,0.619,�k�k��,6.8,��
2020/10/11,01:40,0.638,0.901,0.577,1.107,0.774,0.377,0.651,0.619,�k�k��,7.8,��
2020/10/11,01:50,0.638,0.900,0.576,1.106,0.776,0.376,0.649,0.618,�k�k��,6.9,�L
2020/10/11,02:00,0.639,0.899,0.577,1.107,0.776,0.376,0.648,0.617,�k�k��,7.6,�L
2020/10/11,02:10,0.639,0.898,0.575,1.106,0.776,0.377,0.648,0.618,�k�k��,7.8,��
2020/10/11,02:20,0.638,0.900,0.577,1.107,0.774,0.376,0.650,0.618,�k�k��,7.4,��
2020/10/11,02:30,0.637,0.901,0.579,1.109,0.776,0.376,0.650,0.618,�k�k��,7.6,�L
2020/10/11,02:40,0.635,0.899,0.579,1.106,0.776,0.375,0.651,0.618,�k�k��,8.1,��
2020/10/11,02:50,0.637,0.900,0.578,1.107,0.776,0.377,0.650,0.617,�k�k��,8.0,��
2020/10/11,03:00,0.637,0.901,0.577,1.107,0.776,0.376,0.649,0.618,�k�k��,7.5,�L
2020/10/11,03:10,0.640,0.903,0.578,1.107,0.777,0.375,0.650,0.618,�k�k��,7.7,�L
2020/10/11,03:20,0.638,0.902,0.578,1.107,0.779,0.375,0.649,0.618,�k�k��,8.3,��
2020/10/11,03:30,0.638,0.904,0.578,1.107,0.779,0.375,0.651,0.617,�k�k��,8.0,��
2020/10/11,03:40,0.637,0.902,0.578,1.107,0.778,0.376,0.651,0.619,�k�k��,8.2,��
2020/10/11,03:50,0.639,0.904,0.579,1.109,0.779,0.375,0.651,0.618,�k�k��,8.5,��
2020/10/11,04:00,0.639,0.904,0.578,1.107,0.778,0.375,0.650,0.618,�k�k��,8.0,��
2020/10/11,04:10,0.639,0.904,0.577,1.109,0.780,0.376,0.650,0.618,�k�k��,8.4,�L
2020/10/11,04:20,0.637,0.903,0.577,1.110,0.779,0.376,0.650,0.618,�k�k��,9.1,��
2020/10/11,04:30,0.641,0.905,0.579,1.110,0.778,0.375,0.650,0.618,�k�k��,8.4,��
2020/10/11,04:40,0.639,0.903,0.579,1.111,0.778,0.375,0.651,0.619,�k�k��,8.3,��
2020/10/11,04:50,0.639,0.904,0.579,1.110,0.779,0.375,0.651,0.619,�k�k��,8.8,��
2020/10/11,05:00,0.640,0.904,0.579,1.111,0.779,0.375,0.651,0.618,�k�k��,8.3,��
2020/10/11,05:10,0.639,0.904,0.578,1.112,0.779,0.375,0.651,0.619,�k�k��,8.8,�L
2020/10/11,05:20,0.637,0.905,0.579,1.110,0.778,0.375,0.650,0.618,�k�k��,9.2,�L
2020/10/11,05:30,0.640,0.905,0.579,1.108,0.780,0.376,0.651,0.620,�k�k��,8.8,��
2020/10/11,05:40,0.639,0.905,0.580,1.112,0.779,0.376,0.651,0.619,�k�k��,8.5,��
2020/10/11,05:50,0.640,0.905,0.579,1.111,0.781,0.378,0.651,0.618,�k�k��,7.7,��
2020/10/11,06:00,0.637,0.906,0.579,1.109,0.781,0.377,0.650,0.619,�k�k��,7.2,��
2020/10/11,06:10,0.640,0.903,0.579,1.111,0.780,0.376,0.651,0.619,�k�k��,6.7,��
2020/10/11,06:20,0.640,0.906,0.580,1.113,0.782,0.377,0.650,0.619,�k�k��,7.9,��
2020/10/11,06:30,0.638,0.906,0.580,1.112,0.782,0.376,0.651,0.620,�k�k��,8.1,�L
2020/10/11,06:40,0.640,0.908,0.580,1.112,0.782,0.376,0.650,0.620,�k�k��,7.8,�L
2020/10/11,06:50,0.638,0.906,0.580,1.112,0.783,0.376,0.651,0.619,�k�k��,7.7,�L
2020/10/11,07:00,0.640,0.908,0.580,1.111,0.781,0.378,0.650,0.620,�k�k��,8.9,�L
2020/10/11,07:10,0.639,0.905,0.578,1.110,0.782,0.376,0.651,0.618,�k�k��,7.5,�L
2020/10/11,07:20,0.636,0.905,0.578,1.110,0.779,0.379,0.649,0.618,�k�k��,7.9,�L
2020/10/11,07:30,0.634,0.899,0.577,1.109,0.778,0.376,0.651,0.616,�k,7.2,�L
2020/10/11,07:40,0.631,0.894,0.575,1.105,0.775,0.374,0.648,0.615,�k�k��,8.6,�L
2020/10/11,07:50,0.630,0.891,0.575,1.101,0.773,0.375,0.649,0.615,�k�k��,7.1,�L
2020/10/11,08:00,0.630,0.891,0.571,1.099,0.770,0.373,0.647,0.612,�k�k��,7.6,�L
2020/10/11,08:10,0.629,0.888,0.572,1.096,0.771,0.373,0.645,0.614,�k�k��,7.7,�L
2020/10/11,08:20,0.629,0.889,0.572,1.095,0.771,0.374,0.646,0.613,�k,6.6,�L
2020/10/11,08:30,0.627,0.887,0.573,1.094,0.768,0.373,0.646,0.612,�k,6.8,�L
2020/10/11,08:40,0.626,0.882,0.571,1.088,0.768,0.373,0.644,0.612,�k,7.0,�L
2020/10/11,08:50,0.622,0.879,0.567,1.083,0.765,0.373,0.643,0.609,�k,6.8,�L
2020/10/11,09:00,0.623,0.875,0.569,1.081,0.763,0.371,0.644,0.608,�k,6.6,�L
2020/10/11,09:10,0.623,0.875,0.569,1.075,0.760,0.372,0.641,0.609,�k,5.8,�L
2020/10/11,09:20,0.625,0.877,0.568,1.074,0.759,0.371,0.642,0.610,�k,5.6,�L
2020/10/11,09:30,0.626,0.877,0.570,1.076,0.758,0.373,0.642,0.610,�k,7.6,�L
2020/10/11,09:40,0.630,0.881,0.573,1.075,0.761,0.374,0.645,0.611,�k,8.2,�L
2020/10/11,09:50,0.630,0.883,0.572,1.081,0.764,0.374,0.645,0.612,�k,7.4,�L
2020/10/11,10:00,0.631,0.886,0.572,1.085,0.765,0.374,0.644,0.612,�k,6.9,�L
2020/10/11,10:10,0.632,0.889,0.573,1.085,0.766,0.375,0.645,0.612,�k,7.6,�L
2020/10/11,10:20,0.632,0.890,0.572,1.087,0.765,0.375,0.645,0.611,�k,6.4,�L
2020/10/11,10:30,0.633,0.891,0.573,1.086,0.764,0.374,0.645,0.612,�k,6.9,�L
2020/10/11,10:40,0.633,0.894,0.573,1.087,0.763,0.373,0.645,0.613,�k,6.9,�L
2020/10/11,10:50,0.632,0.891,0.573,1.088,0.764,0.374,0.647,0.612,�k,6.8,�L
2020/10/11,11:00,0.633,0.894,0.571,1.093,0.765,0.373,0.648,0.612,�k,7.6,�L
2020/10/11,11:10,0.634,0.892,0.573,1.093,0.766,0.374,0.646,0.613,�k,6.5,�L
2020/10/11,11:20,0.633,0.897,0.573,1.093,0.765,0.373,0.646,0.614,�k,7.1,�L
2020/10/11,11:30,0.634,0.895,0.573,1.096,0.765,0.375,0.645,0.614,�k,6.9,�L
2020/10/11,11:40,0.632,0.893,0.572,1.095,0.765,0.372,0.645,0.612,�k,8.8,�L
2020/10/11,11:50,0.633,0.893,0.572,1.094,0.765,0.374,0.647,0.613,�k,8.6,�L
2020/10/11,12:00,0.632,0.894,0.573,1.095,0.763,0.373,0.644,0.613,�k,8.8,�L
2020/10/11,12:10,0.632,0.892,0.572,1.092,0.763,0.373,0.645,0.613,�k,8.5,�L
2020/10/11,12:20,0.634,0.891,0.570,1.091,0.761,0.374,0.647,0.611,�k,9.3,�L
2020/10/11,12:30,0.632,0.891,0.572,1.090,0.763,0.374,0.644,0.614,�k,8.7,�L
2020/10/11,12:40,0.633,0.889,0.572,1.088,0.763,0.373,0.645,0.614,�k,8.9,�L
2020/10/11,12:50,0.633,0.891,0.574,1.085,0.764,0.375,0.645,0.612,�k,8.7,�L
2020/10/11,13:00,0.631,0.889,0.571,1.083,0.761,0.375,0.645,0.611,�k,8.7,�L
2020/10/11,13:10,0.632,0.887,0.571,1.085,0.764,0.372,0.644,0.611,�k,9.9,�L
2020/10/11,13:20,0.632,0.886,0.569,1.083,0.762,0.372,0.644,0.612,�k,9.0,�L
2020/10/11,13:30,0.632,0.888,0.570,1.085,0.759,0.373,0.645,0.613,�k,9.6,�L
2020/10/11,13:40,0.630,0.887,0.571,1.081,0.759,0.373,0.644,0.611,�k,8.0,�L
2020/10/11,13:50,0.628,0.883,0.567,1.078,0.756,0.373,0.642,0.611,�k,8.2,�L
2020/10/11,14:00,0.623,0.879,0.567,1.073,0.753,0.371,0.643,0.609,�k,7.6,�L
2020/10/11,14:10,0.624,0.877,0.567,1.071,0.754,0.371,0.641,0.609,�k,8.4,�L
2020/10/11,14:20,0.626,0.873,0.568,1.072,0.754,0.371,0.641,0.608,�k,7.2,�L
2020/10/11,14:30,0.623,0.873,0.566,1.067,0.751,0.371,0.639,0.609,�k,7.9,�L
2020/10/11,14:40,0.624,0.875,0.566,1.071,0.749,0.370,0.639,0.607,�k�k��,8.8,�L
2020/10/11,14:50,0.629,0.879,0.568,1.072,0.751,0.371,0.639,0.609,�k�k��,8.4,�L
2020/10/11,15:00,0.629,0.879,0.567,1.073,0.750,0.372,0.640,0.607,�k�k��,8.7,�L
2020/10/11,15:10,0.628,0.882,0.568,1.073,0.749,0.373,0.643,0.610,�k�k��,10.8,�L
2020/10/11,15:20,0.628,0.876,0.568,1.071,0.751,0.373,0.640,0.608,�k,9.5,�L
2020/10/11,15:30,0.628,0.879,0.569,1.075,0.749,0.372,0.640,0.608,�k,9.7,�L
2020/10/11,15:40,0.628,0.882,0.570,1.074,0.752,0.371,0.642,0.610,�k,9.4,�L
2020/10/11,15:50,0.631,0.882,0.571,1.075,0.752,0.373,0.644,0.610,�k�k��,8.1,�L
2020/10/11,16:00,0.633,0.884,0.572,1.076,0.752,0.373,0.644,0.610,�k,9.1,�L
2020/10/11,16:10,0.633,0.886,0.569,1.082,0.754,0.374,0.644,0.610,�k�k��,8.4,�L
2020/10/11,16:20,0.631,0.888,0.570,1.080,0.754,0.372,0.644,0.610,�k�k��,8.0,�L
2020/10/11,16:30,0.632,0.888,0.569,1.085,0.754,0.373,0.645,0.610,�k�k��,8.1,�L
2020/10/11,16:40,0.633,0.888,0.571,1.086,0.755,0.373,0.644,0.612,�k�k��,8.4,�L
2020/10/11,16:50,0.632,0.888,0.570,1.084,0.756,0.373,0.643,0.611,�k�k��,8.9,�L
2020/10/11,17:00,0.632,0.887,0.571,1.089,0.756,0.373,0.644,0.611,�k�k��,8.1,�L
2020/10/11,17:10,0.632,0.888,0.571,1.088,0.755,0.373,0.644,0.610,�k�k��,8.8,�L
2020/10/11,17:20,0.633,0.891,0.571,1.088,0.757,0.372,0.645,0.611,�k�k��,8.1,��
2020/10/11,17:30,0.632,0.893,0.572,1.090,0.757,0.374,0.644,0.612,�k�k��,8.3,��
2020/10/11,17:40,0.632,0.892,0.572,1.091,0.757,0.373,0.644,0.612,�k�k��,8.0,�L
2020/10/11,17:50,0.632,0.893,0.574,1.091,0.758,0.372,0.644,0.612,�k�k��,7.1,��
2020/10/11,18:00,0.632,0.893,0.573,1.093,0.758,0.372,0.645,0.613,�k�k��,6.6,��
2020/10/11,18:10,0.631,0.893,0.573,1.091,0.760,0.374,0.646,0.614,�k�k��,6.8,��
2020/10/11,18:20,0.634,0.895,0.574,1.094,0.761,0.373,0.646,0.611,�k,7.3,��
2020/10/11,18:30,0.633,0.895,0.573,1.093,0.761,0.372,0.646,0.613,�k�k��,6.8,��
2020/10/11,18:40,0.633,0.894,0.574,1.096,0.760,0.374,0.647,0.615,�k,7.9,��
2020/10/11,18:50,0.634,0.893,0.574,1.095,0.760,0.373,0.647,0.612,�k�k��,7.6,��
2020/10/11,19:00,0.633,0.894,0.575,1.097,0.761,0.374,0.647,0.613,�k,8.0,�L
2020/10/11,19:10,0.634,0.898,0.576,1.094,0.763,0.374,0.646,0.616,�k�k��,6.8,�L
2020/10/11,19:20,0.636,0.898,0.575,1.096,0.764,0.373,0.646,0.614,�k�k��,7.1,�L
2020/10/11,19:30,0.633,0.894,0.574,1.095,0.762,0.374,0.646,0.614,�k,8.0,�L
2020/10/11,19:40,0.633,0.896,0.574,1.100,0.765,0.373,0.646,0.613,�k�k��,6.6,�L
2020/10/11,19:50,0.635,0.898,0.575,1.099,0.765,0.372,0.647,0.615,�k,7.3,�L
2020/10/11,20:00,0.634,0.897,0.575,1.098,0.765,0.373,0.646,0.615,�k,6.4,�L
2020/10/11,20:10,0.633,0.895,0.576,1.098,0.765,0.374,0.647,0.613,�k,5.7,�L
2020/10/11,20:20,0.636,0.896,0.576,1.100,0.764,0.375,0.647,0.614,�k,6.1,�L
2020/10/11,20:30,0.635,0.897,0.576,1.099,0.765,0.374,0.648,0.614,�k,5.9,�L
2020/10/11,20:40,0.634,0.897,0.575,1.100,0.766,0.375,0.647,0.615,�k,6.6,�L
2020/10/11,20:50,0.636,0.895,0.575,1.100,0.768,0.375,0.648,0.615,�k,6.5,�L
2020/10/11,21:00,0.636,0.896,0.576,1.101,0.765,0.374,0.646,0.611,�k,6.4,�L
2020/10/11,21:10,0.637,0.897,0.576,1.099,0.766,0.376,0.646,0.614,�k,7.5,�L
2020/10/11,21:20,0.634,0.896,0.575,1.099,0.763,0.376,0.647,0.614,�k�k��,7.7,�L
2020/10/11,21:30,0.633,0.894,0.575,1.099,0.763,0.375,0.647,0.614,�k,7.8,�L
2020/10/11,21:40,0.633,0.892,0.575,1.100,0.763,0.374,0.647,0.612,�k�k��,8.1,�L
2020/10/11,21:50,0.630,0.892,0.573,1.096,0.762,0.373,0.645,0.611,�k,8.1,�L
2020/10/11,22:00,0.633,0.892,0.573,1.098,0.761,0.373,0.645,0.614,�k�k��,6.5,�L
2020/10/11,22:10,0.632,0.889,0.570,1.092,0.757,0.374,0.644,0.612,�k�k��,8.6,�L
2020/10/11,22:20,0.627,0.884,0.569,1.089,0.758,0.373,0.643,0.611,�k�k��,7.6,�L
2020/10/11,22:30,0.629,0.885,0.570,1.085,0.756,0.373,0.642,0.612,�k�k��,7.6,�L
2020/10/11,22:40,0.626,0.886,0.569,1.083,0.756,0.372,0.643,0.608,�k�k��,8.0,�L
2020/10/11,22:50,0.628,0.883,0.568,1.082,0.756,0.371,0.640,0.610,�k�k��,8.9,�L
2020/10/11,23:00,0.626,0.876,0.569,1.079,0.754,0.371,0.642,0.611,�k�k��,9.2,�L
2020/10/11,23:10,0.627,0.880,0.567,1.078,0.753,0.371,0.643,0.610,�k�k��,8.4,�L
2020/10/11,23:20,0.624,0.876,0.566,1.076,0.750,0.371,0.641,0.611,�k�k��,8.0,�L
2020/10/11,23:30,0.623,0.877,0.566,1.076,0.753,0.372,0.641,0.610,�k�k��,9.0,�L
2020/10/11,23:40,0.625,0.877,0.567,1.074,0.751,0.371,0.641,0.609,�k�k��,7.4,�L
2020/10/11,23:50,0.626,0.877,0.567,1.074,0.752,0.372,0.641,0.609,�k�k��,8.2,�L
